Content
SEND FEEDBACK

Daily
Averages
Monthly
Summary
French Polynesia

PAPEETE, FRENCH POLYNESIA


Home > Oceania > French Polynesia
Elevation: 2 meters     Latitude: 17 33S     Longitude: 149 36W

WEATHER
 
SELECT A DAY
Number of Records: 208,134;   Date Range: 6/30/96 - 7/23/14
 
SHARE

PRINT THIS DATA

[ ← Previous Day ]
WEATHER ALMANAC - 21 FEBRUARY, 2013
[ Next Day → ]
[ °F ]   °C
Weather ElementAverageHighLow
Temperature26.9 °C31.1 °C (2:00 pm)24.4 °C (5:00 am)
Dewpoint21.6 °C22.2 °C (5:00 am)20 °C (6:00 pm)
Humidity71.9 %84 % (5:00 am)50 % (2:00 pm)
Barometer1012.5 hPa1015.2 hPa (8:30 am)1010.2 hPa (4:00 pm)
Wind Speed9.7 km/h18.5 km/h (6:30 pm)
Weather ElementAverage
Visibility11.7 km
Wind DirectionSSE (144.8 °)

Weather ElementTotal
Precipitation---
Cooling Degree Days9.4 (Base 18.3)
Growing Degree Days17.8 (Base 10)
Averaged from 54 records on 21 February, 2013
WEATHER CONDITIONS BREAKOUT
WIND DIRECTION BREAKOUT
WEATHER BY HOUR - 21 FEBRUARY, 2013
[ °F ]   °C
Local TimeTemperatureDewpointHumidityBarometerVisibilityWind DirectionWind SpeedGust SpeedPrecipitationEventsConditions
12:30 AM25 °C22 °C83 %1013.2 hPa10 kmENE (70°)9.3 km/hRainLight Rain
1:00 AM25 °C22 °C83 %1013.2 hPa10 kmSouth (180°)11.1 km/hRainLight Rain
1:30 AM25 °C22 °C83 %1012.2 hPa10 kmSSW (200°)14.8 km/hRainLight Rain
2:00 AM25.6 °C21.7 °C74 %1012.9 hPa19.3 kmSouth (180°)14.8 km/hRainLight Rain
2:00 AM25 °C22 °C83 %1012.2 hPa10 kmSouth (180°)14.8 km/hMostly Cloudy
2:30 AM25 °C22 °C83 %1012.2 hPa10 kmEast (100°)7.4 km/hMostly Cloudy
3:00 AM25 °C21 °C78 %1012.2 hPa10 kmEast (90°)11.1 km/hMostly Cloudy
3:30 AM25 °C21 °C78 %1012.2 hPa10 kmEast (80°)9.3 km/hRainLight Rain
4:00 AM25 °C22 °C83 %1012.2 hPa10 kmESE (120°)3.7 km/hRainLight Rain
4:30 AM25 °C22 °C83 %1012.2 hPa10 kmVariable3.7 km/h
5:00 AM24.4 °C22.2 °C84 %1012.9 hPa54.7 kmESE (120°)3.7 km/hRainLight Rain
5:00 AM25 °C22 °C83 %1012.2 hPa10 kmESE (120°)3.7 km/hRainLight Rain
5:30 AM25 °C22 °C83 %1012.2 hPa10 kmVariable3.7 km/hMostly Cloudy
6:00 AM25 °C22 °C83 %1012.2 hPa10 kmSE (140°)1.9 km/hMostly Cloudy
6:30 AM25 °C22 °C83 %1013.2 hPa10 kmVariable1.9 km/hMostly Cloudy
7:00 AM25 °C21 °C78 %1013.2 hPa10 kmENE (70°)7.4 km/hMostly Cloudy
7:30 AM26 °C21 °C74 %1014.2 hPa10 kmENE (70°)7.4 km/hMostly Cloudy
8:00 AM26.7 °C21.7 °C68 %1014.9 hPa14.5 kmEast (90°)10.8 km/hPartly Cloudy
8:00 AM27 °C22 °C74 %1014.2 hPa10 kmEast (90°)5.6 km/hMostly Cloudy
8:30 AM28 °C22 °C70 %1015.2 hPa10 kmENE (60°)9.3 km/hMostly Cloudy
9:00 AM28 °C22 °C70 %1014.2 hPa10 kmNNE (30°)7.4 km/hMostly Cloudy
9:30 AM28 °C22 °C70 %1014.2 hPa10 kmNE (40°)7.4 km/hMostly Cloudy
10:00 AM29 °C22 °C66 %1014.2 hPa10 kmVariable3.7 km/hMostly Cloudy
10:30 AM29 °C22 °C66 %1014.2 hPa10 kmSW (220°)9.3 km/hMostly Cloudy
11:00 AM28.9 °C21.7 °C57 %1013.9 hPa25.7 kmSSW (200°)16.7 km/hScattered Clouds
11:00 AM29 °C22 °C66 %1013.2 hPa10 kmSSW (200°)16.7 km/hMostly Cloudy
11:30 AM30 °C22 °C62 %1013.2 hPa10 kmSSW (210°)14.8 km/hMostly Cloudy
12:00 PM29 °C22 °C66 %1013.2 hPa10 kmSSW (210°)13 km/hMostly Cloudy
12:30 PM30 °C21 °C58 %1012.2 hPa10 kmSSW (210°)13 km/hMostly Cloudy
1:00 PM30 °C22 °C62 %1012.2 hPa10 kmWSW (240°)5.6 km/hMostly Cloudy
1:30 PM30 °C22 °C62 %1011.2 hPa10 kmWNW (290°)9.3 km/hMostly Cloudy
2:00 PM31.1 °C22.2 °C50 %1011.5 hPa19.3 kmNW (320°)18 km/hScattered Clouds
2:00 PM31 °C22 °C58 %1011.2 hPa10 kmNW (320°)9.3 km/hMostly Cloudy
2:30 PM31 °C22 °C58 %1011.2 hPa10 kmNW (310°)13 km/hMostly Cloudy
3:00 PM31 °C22 °C58 %1011.2 hPa10 kmWNW (300°)9.3 km/hMostly Cloudy
3:30 PM30 °C22 °C62 %1011.2 hPa10 kmSSW (210°)11.1 km/hRainLight Rain
4:00 PM28 °C22 °C70 %1010.2 hPa10 kmSouth (190°)13 km/hRainLight Rain
4:30 PM28 °C22 °C70 %1011.2 hPa10 kmSSW (200°)13 km/hMostly Cloudy
5:00 PM28 °C22 °C70 %1011.2 hPa10 kmEast (90°)5.6 km/hMostly Cloudy
5:30 PM28 °C21 °C66 %1011.2 hPa10 kmNE (50°)13 km/hMostly Cloudy
6:00 PM27 °C20 °C65 %1012.2 hPa10 kmENE (60°)9.3 km/hMostly Cloudy
6:30 PM27 °C20 °C65 %1012.2 hPa10 kmSouth (190°)18.5 km/hMostly Cloudy
7:00 PM26 °C21 °C74 %1012.2 hPa10 kmVariable3.7 km/hRainLight Rain Showers
7:30 PM25 °C21 °C78 %1012.2 hPa10 kmSouth (170°)5.6 km/hMostly Cloudy
8:00 PM25 °C21.1 °C73 %1013.5 hPa14.5 kmNE (50°)9.3 km/hRainLight Rain Showers
8:00 PM25 °C21 °C78 %1013.2 hPa10 kmNE (50°)9.3 km/hMostly Cloudy
8:30 PM25 °C20 °C74 %1013.2 hPa10 kmVariable11.1 km/hMostly Cloudy
9:00 PM25 °C20 °C74 %1013.2 hPa10 kmESE (120°)13 km/hMostly Cloudy
9:30 PM25 °C20 °C74 %1013.2 hPa10 kmSouth (190°)13 km/hRainLight Rain Showers
10:00 PM25 °C21 °C78 %1012.2 hPa10 kmSouth (190°)11.1 km/hRainLight Rain
10:30 PM25 °C21 °C78 %1013.2 hPa10 kmSE (140°)7.4 km/hRainLight Rain
11:00 PM26.1 °C21.1 °C67 %1012.9 hPa19.3 kmWest (280°)11.1 km/hRainLight Rain
11:00 PM26 °C21 °C74 %1012.2 hPa10 kmWest (280°)11.1 km/hMostly Cloudy
11:30 PM27 °C22 °C74 %1012.2 hPa10 kmWNW (300°)11.1 km/hMostly Cloudy
Hourly data recorded from NTAA, located 0 kilometers away from Papeete, French Polynesia







STORIES FROM OUR PARTNERS